QPF
0.27 0.33 0.18 0.12 0.05 0.01 0.01 0.03 0.03 0.00 0.01 0.02 0.01 0.02 0.12 0.13 0.11 0.07 0.03 0.00 0.00 0.01
0.11 0.23 0.27 0.34 0.37 0.49 0.59 0.21 0.04 0.04 0.02 0.00 0.00 0.02 0.00 0.01 0.01 0.02 0.00 0.00 0.00 0.00
0.03 0.02 0.01 0.03 0.09 0.16 0.35 0.41 0.27 0.24 0.17 0.06 0.00 0.02 0.02 0.00 0.00 0.00 0.00 0.00 0.00 0.00
0.00 0.00 0.00 0.00 0.00 0.00 0.00 0.05 0.21 0.32 0.27 0.14 0.03 0.06 0.11 0.08 0.16 0.05 0.01 0.00 0.00 0.00
0.00 0.00 0.00 0.00 0.00 0.00 0.00 0.00 0.01 0.09 0.17 0.14 0.04 0.02 0.01 0.02 0.07 0.05 0.02 0.02 0.01 0.00
0.00 0.00 0.00 0.00 0.00 0.00 0.00 0.00 0.00 0.00 0.01 0.03 0.09 0.09 0.11 0.06 0.01 0.00 0.00 0.00 0.00 0.00
0.00 0.00 0.00 0.00 0.00 0.00 0.00 0.00 0.00 0.00 0.00 0.00 0.01 0.01 0.01 0.00 0.00 0.00 0.00 0.00 0.00 0.00
0.00 0.00 0.00 0.00 0.00 0.00 0.00 0.00 0.00 0.00 0.00 0.00 0.00 0.00 0.00 0.00 0.01 0.01 0.00 0.00 0.00 0.00
0.00 0.00 0.00 0.00 0.00 0.00 0.00 0.00 0.00 0.00 0.00 0.00 0.00 0.00 0.00 0.00 0.00 0.00 0.00 0.00 0.00 0.00
0.00 0.00 0.00 0.00 0.00 0.00 0.00 0.00 0.00 0.00 0.00 0.00 0.00 0.00 0.00 0.00 0.00 0.00 0.00 0.00 0.00 0.00
0.00 0.00 0.00 0.00 0.00 0.00 0.00 0.00 0.00 0.00 0.00 0.00 0.00 0.00 0.00 0.01 0.01 0.00 0.00 0.00 0.00 0.00
0.00 0.00 0.00 0.00 0.00 0.00 0.00 0.00 0.00 0.00 0.00 0.00 0.00 0.00 0.00 0.00 0.00 0.00 0.00 0.00 0.00 0.00
0.00 0.00 0.00 0.00 0.00 0.00 0.00 0.00 0.00 0.00 0.00 0.00 0.00 0.00 0.00 0.00 0.00 0.00 0.00 0.00 0.00 0.02
0.00 0.00 0.00 0.00 0.00 0.00 0.00 0.00 0.00 0.00 0.00 0.00 0.00 0.00 0.00 0.00 0.00 0.00 0.00 0.00 0.01 0.01
MSLP
1015.16 1014.96 1015.04 1015.06 1014.51 1014.20 1014.07 1014.14 1013.93 1013.99 1013.85 1013.65 1013.48 1013.73 1014.05 1014.21 1014.35 1014.49 1014.73 1014.73 1014.98 1014.97
1015.18 1015.23 1014.99 1014.59 1014.22 1013.88 1013.45 1013.29 1012.85 1013.73 1013.20 1013.44 1013.30 1013.31 1013.39 1013.55 1013.55 1013.77 1013.79 1013.84 1013.99 1014.28
1015.12 1014.89 1014.57 1014.21 1013.87 1013.66 1013.59 1013.71 1013.37 1013.05 1012.43 1012.62 1012.87 1012.89 1012.95 1012.93 1012.91 1013.04 1013.01 1013.04 1013.18 1013.30
1015.34 1015.01 1014.71 1014.30 1013.99 1013.71 1013.50 1013.31 1013.09 1012.84 1012.49 1012.48 1012.10 1012.04 1012.16 1012.31 1012.62 1012.91 1012.69 1012.47 1012.46 1012.51
1015.57 1015.29 1014.96 1014.49 1014.05 1013.66 1013.44 1013.14 1012.83 1012.61 1012.29 1012.07 1011.82 1011.54 1011.92 1012.00 1012.10 1012.47 1012.33 1012.07 1012.19 1012.01
1015.88 1015.61 1015.43 1015.04 1014.59 1014.04 1013.59 1013.11 1012.72 1012.41 1012.23 1012.03 1011.91 1011.89 1011.89 1011.74 1011.57 1011.84 1011.73 1011.74 1011.75 1011.62
1016.34 1016.01 1015.79 1015.48 1015.00 1014.55 1014.04 1013.46 1012.98 1012.55 1012.25 1011.91 1011.68 1011.62 1011.47 1011.28 1011.20 1011.32 1011.17 1011.16 1011.07 1011.11
1016.56 1016.19 1015.93 1015.66 1015.27 1014.78 1014.26 1013.79 1013.37 1012.89 1012.35 1011.95 1011.59 1011.24 1011.01 1010.96 1010.86 1010.81 1010.77 1010.69 1010.51 1010.56
1016.75 1016.37 1016.13 1015.84 1015.46 1015.01 1014.53 1014.08 1013.62 1013.07 1012.56 1012.03 1011.54 1011.17 1010.89 1010.68 1010.58 1010.45 1010.43 1010.28 1010.09 1010.11
1017.01 1016.70 1016.33 1015.99 1015.62 1015.17 1014.74 1014.26 1013.75 1013.16 1012.65 1012.05 1011.49 1011.09 1010.73 1010.45 1010.36 1010.21 1010.07 1010.02 1009.93 1009.79
1017.02 1016.53 1016.24 1016.06 1015.81 1015.33 1014.79 1014.27 1013.71 1013.07 1012.53 1011.94 1011.24 1010.91 1010.59 1010.22 1010.05 1009.87 1009.73 1009.65 1009.54 1009.45
1016.83 1016.34 1016.10 1015.87 1015.56 1015.08 1014.56 1014.03 1013.48 1012.83 1012.20 1011.69 1010.96 1010.79 1010.48 1010.18 1009.90 1009.51 1009.22 1009.10 1008.98 1008.98
1016.68 1016.22 1015.85 1015.42 1015.08 1014.60 1014.17 1013.55 1012.97 1012.35 1011.80 1011.26 1010.72 1010.36 1010.05 1009.89 1009.73 1009.34 1008.91 1008.67 1008.54 1008.49
1016.49 1016.14 1015.70 1015.19 1014.87 1014.42 1013.81 1013.13 1012.53 1011.92 1011.34 1010.86 1010.29 1009.83 1009.62 1009.29 1009.20 1008.84 1008.56 1008.43 1008.29 1008.33
Thickness
5767 5768 5771 5773 5776 5778 5777 5774 5775 5775 5776 5778 5780 5778 5775 5773 5771 5769 5766 5767 5765 5766
5768 5767 5768 5769 5771 5772 5768 5768 5779 5772 5775 5773 5775 5777 5776 5774 5772 5771 5770 5768 5768 5766
5765 5767 5768 5771 5771 5772 5768 5765 5767 5771 5770 5769 5770 5772 5772 5772 5773 5773 5772 5771 5769 5768
5758 5759 5761 5763 5765 5766 5765 5765 5765 5767 5769 5767 5771 5772 5773 5771 5768 5764 5767 5769 5769 5769
5752 5753 5754 5758 5760 5761 5760 5762 5763 5762 5764 5765 5767 5770 5766 5765 5763 5760 5762 5764 5764 5765
5743 5745 5745 5747 5749 5752 5754 5756 5758 5757 5756 5756 5758 5758 5758 5760 5760 5756 5758 5759 5758 5759
5734 5735 5735 5735 5737 5739 5742 5745 5747 5748 5749 5750 5751 5751 5751 5753 5753 5752 5754 5754 5756 5756
5726 5727 5727 5726 5728 5730 5732 5733 5734 5736 5739 5741 5743 5745 5746 5746 5746 5746 5747 5749 5751 5751
5716 5716 5716 5715 5716 5717 5719 5721 5722 5725 5727 5729 5733 5736 5737 5738 5738 5739 5739 5740 5743 5743
5704 5704 5703 5703 5703 5704 5706 5708 5709 5712 5715 5718 5722 5724 5727 5729 5730 5730 5732 5734 5734 5735
5696 5696 5695 5693 5691 5691 5694 5696 5698 5701 5703 5708 5712 5714 5716 5718 5721 5723 5724 5725 5727 5728
5688 5688 5686 5683 5681 5681 5684 5685 5687 5690 5693 5697 5702 5702 5704 5706 5709 5714 5716 5718 5719 5720
5680 5679 5678 5677 5675 5674 5674 5677 5679 5682 5685 5688 5692 5693 5695 5696 5700 5703 5706 5708 5710 5711
5671 5669 5668 5667 5665 5665 5666 5668 5671 5674 5676 5679 5683 5685 5686 5689 5691 5694 5695 5696 5698 5699